Regional Weather Roundup
Issued by NWS

Home | Current Version | Previous Version | Graphics & Text | Print | Product List | Glossary On
Versions: 1 2 3 4 5 6 7 8 9 10 11 12 13 14 15 16 17 18 19 20 21 22 23 24 25 26 27 28 29 30 31 32 33 34 35 36 37 38 39 40 41 42 43 44 45 46 47 48 49 50
391
ASUS43 KMKX 030311
RWRWI

WISCONSIN REGIONAL WEATHER ROUNDUP
NATIONAL WEATHER SERVICE MILWAUKEE/SULLIVAN WI
900 PM CST FRI DEC 02 2016

NOTE: "FAIR" INDICATES FEW OR NO CLOUDS BELOW 12,000 FEET WITH NO
SIGNIFICANT WEATHER AND/OR OBSTRUCTIONS TO VISIBILITY.

WIZ001-002-006>008-014>016-023>028-030400-
NORTHWEST WISCONSIN

CITY           SKY/WX    TMP DP  RH WIND       PRES   REMARKS
SUPERIOR ARPT  CLOUDY    31  26  80 W7        30.27S WCI  24
ASHLAND        CLOUDY    29  24  82 SW7       30.27S WCI  22
HAYWARD        CLOUDY    29  22  75 CALM      30.25F
SIREN          CLOUDY    30  24  79 NW6       30.27S WCI  24
CUMBERLAND     CLOUDY    28  23  80 CALM      30.25S
RICE LAKE      CLOUDY    30  24  78 CALM      30.27F
CHETEK         CLOUDY    30  24  77 W5        30.26S WCI  25
LADYSMITH      CLOUDY    29  24  79 NW9       30.26F WCI  21
EAU CLAIRE     CLOUDY    31  23  72 W8        30.28R WCI  23
MENOMONIE      CLOUDY    32  24  72 SW5       30.28R WCI  27
NEW RICHMOND   CLOUDY    30  24  80 NW5       30.28S WCI  25
OSCEOLA        CLOUDY    30  24  78 CALM      30.31S
$$

WIZ003>005-009-010-017-018-030400-
NORTH CENTRAL WISCONSIN

CITY           SKY/WX    TMP DP  RH WIND       PRES   REMARKS
MANITOWISH WTR CLOUDY    28  28 100 NW3       30.21S
ARBOR VITAE    CLOUDY    32  30  93 CALM      30.21S
WOODRUFF       CLOUDY    32  30  93 CALM      30.21S
RHINELANDER    CLOUDY    30  28  92 W5        30.21F WCI  25
EAGLE RIVER    CLOUDY    29  26  86 CALM      30.20S
LAND O LAKES   CLOUDY    30  28  92 CALM      30.22S
PHILLIPS       CLOUDY    28  23  84 NW5       30.23S WCI  22
TOMAHAWK       CLOUDY    29  24  81 W3        30.23S
MEDFORD        CLOUDY    28  22  79 NW3       30.23S
MERRILL        CLOUDY    30  25  80 NW5       30.24S WCI  25
$$

WIZ029-030-035-036-043>047-030400-
CENTRAL WISCONSIN

CITY           SKY/WX    TMP DP  RH WIND       PRES   REMARKS
WAUSAU         CLOUDY    30  24  78 W8        30.23R WCI  22
MOSINEE        CLOUDY    28  25  86 W6        30.25S WCI  22
MARSHFIELD     CLOUDY    29  23  78 NW10      30.24R WCI  20
STEVENS POINT  CLOUDY    29  22  74 W3        30.27R
WAUPACA        CLOUDY    34  25  71 CALM      30.27R
WAUTOMA        CLOUDY    31  23  72 W8        30.29R WCI  23
WISC RAPIDS    CLOUDY    31  23  72 NW6       30.28R WCI  25
CAMP DOUGLAS   CLOUDY    31  24  75 NW5       30.28R WCI  26
$$

WIZ011>013-019>022-031-037>040-048>050-030400-
NORTHEAST WISCONSIN

CITY           SKY/WX    TMP DP  RH WIND       PRES   REMARKS
ANTIGO         CLOUDY    29  26  88 NW5       30.22R WCI  24
SHAWANO        CLOUDY    35  27  73 W3        30.25S
OCONTO         CLOUDY    34  27  76 W5        30.23S WCI  30
STURGEON BAY   CLOUDY    36  29  75 NW10      30.23S WCI  28
GREEN BAY      CLOUDY    35  29  78 W8        30.24F WCI  29
MANITOWOC      CLOUDY    34  26  72 MISG      30.25S
APPLETON       CLOUDY    32  25  74 W6        30.24R WCI  26
CLINTONVILLE   CLOUDY    32  27  80 NW6       30.24S WCI  26
OSHKOSH        CLOUDY    32  24  72 W7        30.27R WCI  26
$$

WIZ032>034-041-042-053>061-030400-
SOUTHWEST WISCONSIN

CITY           SKY/WX    TMP DP  RH WIND       PRES   REMARKS
LA CROSSE      CLOUDY    34  23  64 W6        30.31R WCI  29
SPARTA         CLOUDY    32  24  73 NW7       30.30S WCI  26
VIROQUA        CLOUDY    30  24  79 W6        30.28R WCI  24
BOSCOBEL       CLOUDY    33  23  66 NW3       30.33R
PRAIRIE DU CHI CLOUDY    32  22  67 W10       30.33R WCI  24
PLATTEVILLE    CLOUDY    32  27  81 W5        30.32R WCI  27
$$

WIZ056-057-062-063-064-067-068-030400-
SOUTH CENTRAL WISCONSIN

CITY           SKY/WX    TMP DP  RH WIND       PRES   REMARKS
REEDSBURG      CLOUDY    30  23  73 W5        30.29S WCI  25
BARABOO/DELLS  CLOUDY    30  22  73 W5        30.29R WCI  25
LONE ROCK      CLOUDY    32  23  69 NW7       30.32R WCI  26
MINERAL POINT  CLOUDY    32  27  80 W6        30.29R WCI  26
MADISON        CLOUDY    31  22  69 CALM      30.30R
MIDDLETON      CLOUDY    32  24  73 NW7       30.30R WCI  26
WATERTOWN      CLOUDY    31  24  74 NW5       30.29R WCI  27
MONROE         CLOUDY    32  25  74 W3        30.29R
JANESVILLE     CLOUDY    34  25  69 W6        30.30R WCI  29
$$

WIZ051-052-058>065-066-070>072-030400-
SOUTHEAST WISCONSIN

CITY           SKY/WX    TMP DP  RH WIND       PRES   REMARKS
MILWAUKEE      CLOUDY    35  23  61 W7        30.29R WCI  29
WAUKESHA       CLOUDY    30  23  74 W6        30.30R WCI  24
MILWAUKEE/TIMM CLOUDY    32  21  64 W9        30.30R WCI  24
RACINE         CLOUDY    34  23  64 W5        30.31R WCI  30
BURLINGTON     CLOUDY    32  24  73 CALM      30.30R
KENOSHA        CLOUDY    33  25  72 NW5       30.30R WCI  29
FOND DU LAC    CLOUDY    32  22  66 W8        30.28R WCI  25
SHEBOYGAN      CLOUDY    33  25  72 NW10      30.27R WCI  25
WEST BEND      CLOUDY    32  27  80 W7        30.28R WCI  26
JUNEAU         CLOUDY    30  22  72 NW3       30.29S
$$

LSZ147-162-030400-
LAKE SUPERIOR

STATION/POSITION TIME  TEMP    WIND        PRES    WAVE
                       AIR SEA DIR/SP/G            HT/PER
                 (UTC) (F)     (DEG/KT/KT) (MB)    (FT/S)
DEVILS ISLAND    0300   33     260/ 10/ 12 1025.1R
PORT WING        0240   31     190/  6/  8 1024.7S
SAXON HARBOR     0240   31     210/  6/ 10 1024.4F
$$

LMZ867-665-643>646-030400-
LAKE MICHIGAN

STATION/POSITION TIME  TEMP    WIND        PRES    WAVE
                       AIR SEA DIR/SP/G            HT/PER
                 (UTC) (F)     (DEG/KT/KT) (MB)    (FT/S)
CHAMBERS ISLAND  0240   37     270/  5/ 10 1023.0S
NORTHPORT PIER   0240   38     300/ 12/ 15 1023.0S
SISTER BAY       0238   38     310/ 14/ 16   N/A
ALGOMA LAKESHORE 0251          320/  3/  6   N/A
KEWAUNEE LAKESHO 0242   35     280/  6/ 10 1023.3R
SHEBOYGAN LAKESH 0300   34     270/ 10/ 12 1025.6R
PORT WASHINGTON  0230   34     310/  4/  6 1026.4R
MILWAUKEE LAKESH 0250   34     270/  8/  9   N/A
S MID LAKE BUOY  0250   36 49  280/  8/ 12 1025.9R   2/ 5
KENOSHA   LAKESH 0300   35     320/  5/  7 1025.7
$$

TC  - TEMPERATURE IN CELSIUS
VSB - VISIBILITY IN STATUTE MILES
WCI - WIND CHILL INDEX
HX  - HEAT INDEX





USA.gov is the U.S. government's official web portal to all federal, state and local government web resources and services.